Location: Alafon
(8.4500°N, 4.2333°E)
Time: 23:06:05
(UTC+00:00)

Vanguard 2 - Pass Details

Date: 10 August 2021
Orbit: 553 x 2937 km, 32.9° (Epoch: 26 September)

Event Time Altitude Azimuth Distance (km) Brightness Sun altitude
Rises 20:15:02 0° 223° (SW) 6,483 12.5 -32.1°
Reaches altitude 10° 20:20:05 10° 217° (SW) 5,203 11.8 -33.2°
Enters shadow 20:30:29 40° 181° (S) 2,714 10.0 -35.5°
Maximum altitude 20:33:20 45° 150° (SSE) 2,345 - -36.2°
Drops below altitude 10° 20:41:37 10° 80° (E) 3,326 - -38.0°
Sets 20:44:06 0° 73° (ENE) 4,027 - -38.5°
